Precipitable_Water
0.40 0.42 0.42 0.38 0.35 0.35 0.35 0.35 0.35 0.37 0.38 0.36 0.34 0.34 0.32 0.35 0.37 0.39 0.39 0.42 0.44 0.47 0.47 0.48 0.49 0.51 0.48 0.46 0.46 0.49 0.50 0.47 0.67 0.78 0.98 1.18 1.26 1.29 1.24 1.18 1.15 1.14 1.27
0.37 0.39 0.39 0.36 0.34 0.34 0.35 0.36 0.36 0.37 0.38 0.37 0.37 0.36 0.35 0.36 0.37 0.38 0.37 0.41 0.44 0.46 0.47 0.48 0.49 0.52 0.52 0.52 0.50 0.46 0.45 0.51 0.56 0.64 0.76 0.78 1.06 1.15 1.24 1.25 1.14 1.13 1.24
0.35 0.36 0.36 0.35 0.36 0.35 0.35 0.36 0.37 0.38 0.38 0.38 0.37 0.35 0.35 0.35 0.35 0.35 0.35 0.38 0.42 0.46 0.48 0.50 0.51 0.53 0.56 0.56 0.56 0.56 0.50 0.45 0.54 0.65 0.71 0.67 0.80 1.01 1.12 1.22 1.19 1.14 1.15
0.38 0.38 0.37 0.36 0.36 0.35 0.36 0.37 0.37 0.37 0.37 0.38 0.35 0.33 0.31 0.30 0.34 0.34 0.35 0.37 0.42 0.44 0.46 0.48 0.49 0.52 0.57 0.59 0.62 0.64 0.60 0.57 0.47 0.58 0.70 0.91 0.88 1.07 0.88 1.11 1.21 1.19 1.13
0.41 0.40 0.39 0.37 0.36 0.37 0.37 0.37 0.38 0.38 0.38 0.37 0.37 0.35 0.33 0.35 0.36 0.34 0.32 0.34 0.37 0.43 0.46 0.48 0.50 0.53 0.55 0.60 0.66 0.68 0.66 0.65 0.57 0.54 0.58 0.62 0.79 0.93 1.07 0.89 1.01 1.18 1.17
0.43 0.43 0.41 0.39 0.37 0.39 0.39 0.39 0.39 0.38 0.38 0.38 0.38 0.36 0.35 0.34 0.32 0.31 0.30 0.32 0.35 0.38 0.43 0.47 0.50 0.51 0.55 0.60 0.67 0.70 0.70 0.67 0.67 0.64 0.61 0.60 0.57 0.69 0.90 1.00 1.04 1.05 1.11
0.43 0.41 0.39 0.38 0.38 0.38 0.40 0.41 0.40 0.38 0.39 0.39 0.37 0.35 0.35 0.35 0.32 0.30 0.30 0.31 0.33 0.36 0.39 0.43 0.46 0.49 0.53 0.61 0.67 0.71 0.70 0.69 0.67 0.67 0.64 0.65 0.64 0.67 0.84 1.06 1.05 1.08 1.17
0.44 0.42 0.40 0.39 0.39 0.40 0.43 0.42 0.41 0.40 0.40 0.38 0.35 0.35 0.36 0.34 0.33 0.33 0.33 0.33 0.34 0.36 0.39 0.41 0.44 0.49 0.53 0.55 0.65 0.69 0.71 0.71 0.73 0.72 0.70 0.68 0.65 0.69 0.70 0.88 1.04 1.05 1.10
0.44 0.43 0.42 0.41 0.42 0.43 0.43 0.42 0.42 0.41 0.40 0.38 0.36 0.35 0.36 0.35 0.34 0.35 0.35 0.35 0.36 0.37 0.38 0.39 0.40 0.46 0.50 0.52 0.58 0.67 0.69 0.73 0.73 0.74 0.73 0.71 0.71 0.69 0.67 0.79 1.07 1.08 0.97
0.44 0.44 0.43 0.44 0.45 0.45 0.44 0.44 0.44 0.41 0.40 0.38 0.36 0.35 0.36 0.35 0.36 0.36 0.34 0.34 0.35 0.36 0.37 0.38 0.39 0.41 0.47 0.51 0.54 0.66 0.71 0.71 0.72 0.75 0.77 0.76 0.79 0.76 0.69 0.68 0.90 1.10 1.24
0.46 0.46 0.47 0.48 0.47 0.46 0.45 0.45 0.43 0.40 0.39 0.37 0.37 0.37 0.36 0.34 0.35 0.35 0.34 0.34 0.35 0.36 0.36 0.37 0.37 0.39 0.43 0.47 0.51 0.61 0.70 0.72 0.72 0.74 0.77 0.85 0.87 0.79 0.74 0.70 0.77 0.93 1.10
0.48 0.48 0.49 0.50 0.49 0.47 0.45 0.43 0.43 0.42 0.41 0.41 0.39 0.37 0.36 0.34 0.34 0.35 0.35 0.35 0.34 0.36 0.37 0.37 0.37 0.38 0.40 0.44 0.47 0.53 0.64 0.68 0.70 0.76 0.75 0.77 0.89 0.81 0.79 0.73 0.81 0.78 1.02
0.49 0.50 0.50 0.48 0.47 0.46 0.44 0.43 0.43 0.42 0.41 0.40 0.38 0.36 0.35 0.34 0.34 0.36 0.36 0.34 0.34 0.35 0.37 0.37 0.36 0.36 0.39 0.41 0.44 0.51 0.61 0.66 0.73 0.76 0.72 0.76 0.85 0.82 0.79 0.83 0.89 0.83 0.90
0.50 0.50 0.49 0.48 0.46 0.46 0.45 0.44 0.41 0.40 0.39 0.38 0.36 0.35 0.34 0.35 0.36 0.38 0.36 0.35 0.35 0.36 0.37 0.37 0.37 0.36 0.38 0.40 0.42 0.47 0.58 0.68 0.75 0.78 0.73 0.75 0.86 0.89 0.90 0.91 0.88 0.88 0.80
0.49 0.48 0.48 0.47 0.47 0.46 0.44 0.41 0.39 0.38 0.37 0.34 0.34 0.34 0.36 0.37 0.37 0.37 0.36 0.36 0.36 0.36 0.37 0.37 0.38 0.37 0.38 0.40 0.41 0.45 0.53 0.65 0.72 0.79 0.77 0.75 0.81 0.90 0.95 0.94 0.91 0.87 0.84
0.48 0.48 0.47 0.46 0.48 0.48 0.39 0.37 0.37 0.35 0.34 0.32 0.32 0.33 0.35 0.36 0.35 0.35 0.36 0.36 0.35 0.36 0.36 0.36 0.37 0.36 0.37 0.39 0.41 0.43 0.49 0.59 0.69 0.74 0.79 0.74 0.78 0.84 0.89 0.91 0.93 0.95 0.83
0.49 0.48 0.49 0.53 0.43 0.39 0.38 0.36 0.33 0.32 0.32 0.32 0.33 0.33 0.34 0.34 0.35 0.35 0.35 0.35 0.35 0.35 0.35 0.35 0.36 0.36 0.37 0.38 0.38 0.41 0.47 0.53 0.63 0.72 0.77 0.75 0.71 0.79 0.85 0.90 0.86 0.86 0.92
0.50 0.54 0.52 0.44 0.40 0.39 0.37 0.34 0.32 0.31 0.31 0.31 0.32 0.33 0.34 0.34 0.34 0.33 0.34 0.34 0.35 0.34 0.34 0.35 0.35 0.36 0.38 0.38 0.39 0.40 0.45 0.51 0.58 0.66 0.75 0.78 0.73 0.70 0.77 0.88 0.86 0.80 0.87
0.55 0.52 0.45 0.40 0.38 0.36 0.32 0.30 0.30 0.31 0.31 0.31 0.32 0.33 0.33 0.32 0.33 0.32 0.32 0.34 0.34 0.34 0.34 0.34 0.35 0.35 0.36 0.38 0.39 0.40 0.43 0.48 0.55 0.63 0.70 0.74 0.77 0.69 0.68 0.76 0.82 0.78 0.82
0.48 0.44 0.40 0.40 0.33 0.30 0.30 0.30 0.29 0.30 0.30 0.31 0.32 0.33 0.33 0.32 0.31 0.32 0.32 0.33 0.34 0.34 0.35 0.34 0.35 0.36 0.37 0.39 0.40 0.41 0.42 0.45 0.52 0.61 0.68 0.70 0.71 0.72 0.66 0.72 0.79 0.75 0.70
0.42 0.41 0.36 0.30 0.29 0.29 0.29 0.28 0.28 0.28 0.30 0.32 0.33 0.33 0.33 0.32 0.32 0.33 0.31 0.32 0.32 0.34 0.35 0.35 0.36 0.36 0.37 0.39 0.41 0.42 0.42 0.45 0.51 0.57 0.62 0.67 0.71 0.70 0.70 0.72 0.76 0.75 0.79
0.36 0.31 0.27 0.27 0.28 0.29 0.28 0.26 0.26 0.29 0.30 0.30 0.30 0.30 0.30 0.30 0.32 0.32 0.32 0.32 0.32 0.33 0.34 0.35 0.35 0.36 0.37 0.39 0.41 0.43 0.44 0.48 0.52 0.55 0.61 0.64 0.69 0.73 0.69 0.71 0.74 0.82 0.81
0.28 0.27 0.26 0.26 0.27 0.27 0.26 0.24 0.25 0.26 0.26 0.26 0.26 0.27 0.28 0.28 0.29 0.29 0.30 0.31 0.31 0.31 0.31 0.32 0.34 0.34 0.37 0.38 0.40 0.42 0.44 0.49 0.52 0.55 0.59 0.61 0.65 0.69 0.68 0.67 0.73 0.77 0.79
0.25 0.25 0.24 0.23 0.22 0.23 0.22 0.21 0.21 0.21 0.21 0.19 0.19 0.20 0.21 0.22 0.23 0.24 0.25 0.26 0.29 0.30 0.30 0.30 0.31 0.32 0.34 0.36 0.38 0.40 0.44 0.48 0.50 0.53 0.56 0.58 0.61 0.64 0.67 0.71 0.72 0.71 0.75
0.24 0.23 0.21 0.19 0.19 0.19 0.19 0.19 0.18 0.18 0.16 0.15 0.15 0.15 0.15 0.16 0.16 0.18 0.19 0.20 0.22 0.24 0.26 0.29 0.31 0.30 0.30 0.33 0.36 0.38 0.41 0.43 0.46 0.49 0.52 0.54 0.56 0.58 0.62 0.62 0.63 0.67 0.71
0.20 0.18 0.17 0.17 0.16 0.16 0.16 0.17 0.17 0.16 0.14 0.13 0.13 0.14 0.14 0.14 0.14 0.14 0.14 0.17 0.18 0.19 0.21 0.24 0.27 0.31 0.33 0.34 0.35 0.38 0.40 0.42 0.44 0.45 0.46 0.48 0.50 0.52 0.55 0.58 0.62 0.66 0.71
Wind_Speed
16 16 17 17 18 19 20 21 22 23 24 25 26 27 28 29 29 30 30 31 31 33 34 34 35 36 38 39 40 42 44 45 45 43 44 44 43 42 40 37 35 34 32
18 18 18 19 20 21 22 23 24 25 26 27 28 29 30 30 31 31 31 31 32 34 35 35 36 38 40 42 42 43 44 45 45 44 43 42 43 44 43 40 38 36 34
20 20 20 21 22 23 24 24 26 27 27 29 30 31 31 32 32 33 32 32 33 34 35 36 37 39 42 42 43 39 36 36 39 46 44 41 43 41 41 44 41 39 37
23 22 22 23 23 23 24 25 26 27 28 30 31 32 32 33 34 33 33 33 33 34 35 36 37 40 41 42 40 35 34 35 34 37 45 47 50 33 38 40 43 42 40
25 25 24 24 24 24 26 26 27 28 29 30 31 32 33 34 34 34 34 34 34 35 36 36 38 40 41 41 37 34 34 34 35 35 39 47 47 52 46 39 39 42 43
26 25 25 25 24 25 26 26 27 28 30 31 33 34 34 35 35 35 35 35 35 35 36 37 38 39 40 40 36 35 35 35 36 37 37 42 46 47 49 48 41 42 42
25 25 25 25 26 26 26 27 28 29 31 33 34 34 35 35 35 35 36 36 36 36 37 37 37 38 39 39 37 35 34 36 38 39 40 42 46 52 49 49 49 42 41
25 25 25 25 26 26 27 28 29 30 31 33 34 34 35 34 34 36 36 37 37 38 37 37 38 38 39 39 38 35 37 38 40 41 42 44 47 49 56 51 49 47 46
25 25 25 25 26 26 27 28 30 32 33 34 34 35 35 35 35 36 37 37 38 38 37 38 38 39 39 39 38 37 37 38 40 40 42 45 48 52 55 60 53 51 50
25 25 25 25 26 27 28 30 31 33 34 35 35 36 36 36 36 37 38 38 38 38 38 38 38 39 39 39 39 37 37 38 39 40 44 47 50 55 57 61 60 57 48
24 24 25 26 27 29 30 31 33 34 34 35 37 37 37 37 37 37 38 38 39 38 38 38 38 38 39 39 39 38 37 38 39 39 42 45 48 54 56 60 65 58 49
26 26 27 28 29 30 31 32 34 34 35 37 37 37 37 36 36 37 38 39 39 38 38 38 38 38 38 38 39 38 37 39 41 43 43 42 43 49 56 59 60 63 56
28 29 29 29 30 31 32 33 34 36 37 37 36 36 36 36 37 37 38 38 38 38 38 38 38 38 38 38 38 38 38 38 40 40 38 37 36 41 50 55 55 60 58
28 28 28 29 30 31 33 34 34 35 35 35 35 35 35 36 36 37 38 38 38 38 38 38 38 38 38 38 38 39 39 38 37 38 35 34 34 35 45 49 55 55 55
26 27 27 27 28 29 30 31 33 34 34 34 34 34 35 35 36 36 37 38 38 38 38 38 38 38 38 38 39 40 39 38 38 36 33 31 34 37 43 45 51 53 54
24 24 25 26 28 29 29 30 31 31 31 31 31 32 33 34 35 36 37 37 38 38 38 38 38 38 38 39 40 40 39 37 35 33 31 30 33 38 42 46 49 52 53
22 22 23 25 26 27 28 29 29 30 30 30 31 32 33 34 35 36 37 37 37 38 38 38 38 38 38 39 40 40 39 36 34 33 28 28 31 37 42 46 49 51 53
21 21 21 22 23 24 26 27 27 27 29 30 31 32 33 34 35 36 36 37 37 37 37 37 38 38 38 39 40 40 37 35 33 32 29 27 30 36 40 46 48 51 55
19 20 22 23 23 24 25 26 26 27 28 29 30 32 33 34 35 36 37 37 37 37 37 37 37 38 38 39 39 39 36 34 32 31 28 28 31 37 42 42 48 50 52
17 18 20 21 23 24 24 25 25 27 28 30 31 32 32 33 35 36 36 37 37 36 36 37 37 37 37 38 37 37 34 32 30 29 26 28 29 34 42 44 45 50 51
16 17 19 20 22 23 24 24 26 27 28 29 30 30 31 33 34 35 35 35 35 34 35 35 35 35 35 34 34 33 30 28 28 26 25 25 24 26 36 44 47 47 48
14 15 17 18 19 20 21 23 24 26 28 29 29 30 31 31 32 32 33 33 32 32 32 32 31 30 30 30 29 27 26 25 24 23 22 21 21 20 28 36 46 48 49
12 13 14 15 16 18 19 21 24 26 27 28 28 29 29 30 30 30 30 30 29 28 28 27 27 27 27 26 26 24 22 22 20 20 19 18 17 14 22 29 35 44 46
10 10 11 12 15 17 18 20 22 24 25 26 27 27 27 27 27 26 27 27 26 26 26 26 25 25 25 24 23 22 20 20 18 18 16 15 14 11 14 23 30 37 42
7 8 10 12 13 15 17 19 21 22 23 23 24 25 25 25 25 25 24 25 24 25 26 25 25 24 23 23 22 22 20 19 16 15 14 14 12 5 4 12 20 27 34
6 8 9 11 12 14 15 17 19 21 22 23 24 25 25 25 25 24 24 24 24 24 25 25 24 23 23 23 22 21 20 19 17 14 13 14 13 10 3 6 13 17 20
Wind_Direction
250 257 268 277 284 289 293 295 297 299 299 300 301 303 307 308 309 309 308 305 304 304 304 302 300 299 297 294 288 283 277 270 263 262 256 253 251 247 246 246 245 243 240
251 259 268 277 284 289 292 294 296 299 298 299 301 303 305 305 306 307 307 306 305 305 305 304 302 300 300 297 292 287 279 271 262 257 256 252 249 246 244 243 242 241 239
252 261 268 276 283 288 291 293 295 298 299 301 302 304 304 306 306 307 306 306 306 306 306 306 304 303 303 298 295 288 280 274 266 255 250 248 248 245 242 241 240 239 237
257 264 271 277 282 286 289 292 295 298 299 302 303 304 304 305 306 306 306 306 306 306 307 306 306 306 305 302 297 285 278 275 271 262 248 248 244 248 242 241 238 236 235
258 263 270 276 280 284 288 291 295 297 299 302 303 304 304 305 306 305 306 306 307 307 308 308 309 309 306 304 295 286 280 274 271 265 256 249 247 243 244 242 238 236 234
258 263 269 273 279 284 288 291 295 298 300 302 303 304 305 305 306 305 306 307 308 307 308 309 309 310 309 305 295 285 279 275 272 268 261 252 244 242 240 240 238 236 234
257 261 267 273 278 283 287 292 295 298 300 301 303 304 305 305 305 306 306 307 308 308 308 309 309 310 310 306 297 285 280 278 274 269 263 256 250 242 242 240 237 236 234
258 261 267 272 276 282 287 291 294 297 299 301 303 304 304 304 303 305 306 306 307 307 308 308 308 309 310 309 300 286 281 280 276 269 264 258 252 246 239 240 236 235 232
258 261 266 271 276 281 286 291 294 297 299 301 303 304 304 304 303 304 305 306 307 307 307 308 308 309 309 309 304 290 284 283 279 273 266 260 255 248 241 235 235 233 231
258 261 266 271 276 281 286 290 294 296 298 300 302 303 303 304 303 304 305 306 307 306 307 308 308 309 310 309 307 297 287 286 285 276 271 263 258 248 241 235 233 230 235
259 263 267 272 277 282 287 290 294 297 298 300 302 302 302 303 303 304 305 306 306 306 307 307 308 309 309 309 308 304 292 288 290 285 276 269 258 247 239 233 228 228 228
260 264 268 273 278 283 288 291 294 296 298 300 301 301 302 304 303 303 305 306 306 306 306 306 307 308 308 309 308 307 297 291 292 287 279 273 258 245 235 228 226 226 227
263 267 269 273 278 283 288 291 294 297 299 300 301 302 303 304 304 304 306 306 306 306 306 306 306 307 308 308 309 308 303 296 295 295 278 268 261 243 227 223 224 222 225
264 267 269 274 280 286 289 293 295 298 300 300 301 302 304 304 305 305 306 307 307 306 306 306 306 306 307 307 309 309 307 300 298 296 278 265 254 238 224 223 223 223 223
268 268 271 276 283 288 292 294 298 299 302 303 303 303 303 304 306 306 308 308 307 307 306 305 306 306 306 307 308 309 308 303 301 301 278 266 249 237 225 223 221 222 222
267 269 273 278 286 291 294 297 300 302 303 305 306 305 306 306 307 308 309 309 309 308 307 306 306 306 305 307 308 308 307 305 302 300 290 267 250 235 227 225 223 223 221
266 270 276 281 287 292 295 298 301 303 304 306 307 307 308 308 309 310 310 310 310 309 308 307 306 306 305 307 307 308 305 304 303 298 292 274 252 237 229 226 225 224 223
262 269 275 284 289 294 298 301 303 305 307 307 308 310 311 311 311 311 312 311 311 310 309 309 308 307 306 307 308 307 304 303 300 298 287 284 259 240 233 229 225 223 220
264 269 280 288 293 299 302 304 306 308 309 311 313 314 314 314 314 314 313 312 312 311 310 310 309 309 308 308 308 307 303 302 302 300 288 282 274 245 234 231 223 221 220
270 275 283 290 295 299 302 304 307 310 312 314 314 314 315 316 317 317 316 314 313 311 311 312 311 311 310 309 309 308 303 301 302 302 293 294 283 247 232 226 222 220 219
273 281 289 294 297 300 304 306 310 312 314 315 315 315 316 318 319 319 319 318 316 315 315 315 315 315 314 312 311 310 306 304 304 304 300 300 292 250 232 224 222 220 219
280 287 292 298 303 306 310 313 315 315 314 315 316 318 319 321 323 323 325 325 323 322 321 320 320 321 322 323 319 315 313 311 308 307 307 304 306 258 235 224 221 221 220
288 295 298 302 309 314 318 319 320 320 320 320 320 320 320 321 323 328 329 331 332 332 330 329 328 328 329 331 332 328 323 320 318 315 319 315 312 273 237 226 220 217 218
295 301 309 315 319 322 325 326 327 329 329 330 330 329 327 327 328 329 333 336 336 338 338 338 336 336 336 337 339 339 334 331 327 330 328 330 328 301 240 224 219 219 221
305 314 320 324 329 332 336 338 340 341 341 341 341 341 340 337 334 335 335 339 340 341 341 342 342 341 343 344 344 346 345 343 340 338 345 351 351 350 224 212 216 218 222
316 325 331 336 342 347 350 352 352 353 352 351 349 348 345 343 341 338 338 339 341 342 345 345 345 344 346 347 349 349 352 353 352 354 358 8 17 26 350 219 207 211 218